[[{"header":{"parameterUnit":"m.s-1","parameterCategory":1,"la1":30.2991,"la2":30.254,"lo1":-89.0895,"lo2":-89.0444,"dy":0.0017,"dx":0.0017,"nx":28,"ny":28,"refTime":"2024-08-13T09:00:00:Z","depth":0,"parameterNumber":2,"parameterNumberName":"U-component_of_WINDS"},"data":[0,0,0,0,0,0,0,0,0,0,0,0,0,0,0,0,0,0,0,0,0,0,0,0,0,0,0,0,0,0,0,0,0,0,0,0,0,0,0,0,0,0,0,0,0,0,0,0,0,0,0,0,0,0,0,0,0,0,1.2213,1.2214,0,1.2394,1.2396,1.2398,1.2399,1.2397,1.2395,1.2393,1.2588,1.2595,1.2602,0,0,0,0,0,0,0,0,0,0,0,0,0,1.1876,1.1882,1.2212,1.2215,1.2217,1.2393,1.2396,1.2398,1.24,1.2397,1.2394,1.2391,1.2585,1.2594,1.2603,0,0,0,0,0,0,0,0,0,0,0,0,0,1.2036,1.1884,1.2212,1.2239,1.2243,1.2393,1.2396,1.2399,1.24,1.2397,1.2393,1.239,1.2582,1.2593,1.2604,1.2742,0,0,1.2638,1.2643,0,0,0,0,0,0,0,0,1.2027,1.2049,1.2232,1.2237,1.2242,1.237,1.2349,1.2515,1.2401,1.2341,1.2392,1.2388,1.2519,1.2535,1.2577,1.2752,1.276,1.2639,1.2645,1.265,1.2653,0,0,0,0,0,0,0,1.2016,1.2041,1.2284,1.2235,1.2241,1.2244,1.2263,1.238,1.2448,1.2346,1.2346,1.2367,1.2521,1.2566,1.2581,1.2763,1.2638,1.2648,1.2655,1.2659,1.306,1.3064,0,0,0,0,0,0,1.1998,1.2031,1.2279,1.229,1.2123,1.2253,1.2274,1.2333,1.2446,1.246,1.237,1.2367,1.2549,1.2569,1.2588,1.2758,1.265,1.266,1.2667,1.3056,1.3061,1.3066,0,0,0,0,0,0,1.1991,1.202,1.2271,1.2161,1.2193,1.2263,1.2328,1.2338,1.2383,1.2464,1.2477,1.2404,1.2547,1.2573,1.2703,1.2764,1.2665,1.2676,1.3052,1.3058,1.3063,1.3098,0,0,0,0,0,0,1.1981,1.2018,1.2069,1.2162,1.2199,1.2381,1.2332,1.2344,1.2401,1.2399,1.2499,1.2513,1.2546,1.2687,1.2714,1.2778,1.2684,1.3047,1.3054,1.3062,1.3091,1.3104,1.3115,0,0,0,0,0,1.1969,1.2074,1.2072,1.2101,1.2264,1.2384,1.2406,1.244,1.2406,1.246,1.2512,1.2509,1.2753,1.27,1.2731,1.2799,1.3043,1.3052,1.3061,1.3086,1.3101,1.3115,0,0,0,0,0,0,1.199,1.2086,1.2085,1.2222,1.2295,1.2384,1.2453,1.2455,1.2541,1.2536,1.2577,1.2599,1.2729,1.2778,1.2717,1.2939,1.2894,1.291,1.2903,1.2918,1.293,1.2916,1.2693,0,0,0,0,0,1.2009,1.2096,1.2177,1.229,1.2326,1.2383,1.2437,1.2456,1.2535,1.2566,1.2628,1.2706,1.28,1.2862,1.2953,1.3098,1.3121,1.316,1.3172,1.3181,1.3194,1.3275,1.3293,1.3095,1.3095,1.3095,0,0,1.2053,1.2116,1.2169,1.2296,1.2354,1.2446,1.2409,1.2508,1.2577,1.2583,1.2708,1.2756,1.2847,1.2985,1.3049,1.3029,1.3254,1.3192,1.3199,1.3208,1.3286,1.3304,1.3321,1.3101,1.31,1.3099,0,0,1.2178,1.2234,1.2334,1.2392,1.248,1.2517,1.2541,1.263,1.2661,1.2788,1.2793,1.2878,1.3039,1.3103,1.3156,1.3304,1.3306,1.3333,1.3395,1.3473,1.3488,1.3502,1.3555,1.3574,1.3346,1.3346,1.3346,0,1.2221,1.2356,1.2386,1.2484,1.254,1.2545,1.2648,1.2705,1.2819,1.2859,1.2834,1.3036,1.3097,1.325,1.3286,1.3329,1.3359,1.3322,1.3483,1.3497,1.3511,1.3562,1.3582,1.3349,1.3348,1.3348,1.3348,0,1.2405,1.2499,1.2569,1.2676,1.274,1.284,1.2888,1.295,1.2963,1.3003,1.3133,1.3206,1.3312,1.335,1.3366,1.3505,1.349,1.3474,1.343,1.3532,1.3581,1.3601,1.3353,1.3352,1.3351,1.335,0,0,1.2549,1.2669,1.2694,1.2742,1.2839,1.2914,1.3015,1.3115,1.3167,1.3246,1.3333,1.3468,1.3453,1.3514,1.3537,1.3605,1.3718,1.3581,1.3584,1.3604,1.3877,1.3889,1.3911,1.3719,1.3723,1.3726,1.3869,0,1.2684,1.286,1.289,1.3045,1.3132,1.3139,1.3227,1.3297,1.3337,1.3419,1.3465,1.356,1.3533,1.357,1.3637,1.3689,1.3773,1.368,1.3802,1.3806,1.3779,1.3936,1.3949,1.4081,1.3889,1.3892,1.3894,0,1.2866,1.2945,1.3108,1.3192,1.323,1.3308,1.3402,1.348,1.356,1.3585,1.3652,1.3666,1.3774,1.3724,1.3873,1.3809,1.3861,1.3894,1.39,1.3914,1.3857,1.3954,1.4124,1.4144,1.3924,1.3922,1.392,0,1.2954,1.3103,1.3219,1.326,1.3361,1.3416,1.3461,1.3538,1.3596,1.3679,1.3717,1.3813,1.3866,1.3941,1.3982,1.3942,1.4128,1.4082,1.4154,1.4153,1.4193,1.419,1.4374,1.4226,1.4226,1.4225,1.4225,0,1.3103,1.3202,1.326,1.3332,1.3444,1.3478,1.3589,1.3634,1.3701,1.3784,1.3796,1.3874,1.3923,1.4008,1.4041,1.416,1.4184,1.4208,1.4216,1.4208,1.4204,1.4243,1.4235,1.4231,1.423,1.4229,1.4228,0,1.3221,1.3263,1.339,1.3474,1.3498,1.3577,1.365,1.3722,1.3761,1.3865,1.3891,1.3954,1.4055,1.4103,1.4229,1.4251,1.4386,1.4388,1.4358,1.4361,1.443,1.4423,1.4646,1.4677,1.4507,1.4509,1.451,0,1.3312,1.3389,1.348,1.3534,1.358,1.3668,1.3726,1.3763,1.3824,1.392,1.398,1.4081,1.4163,1.4325,1.4383,1.448,1.4484,1.4556,1.4499,1.4488,1.4486,1.4481,1.4489,1.4566,1.4568,1.4569,1.457,0,1.3471,1.3488,1.3569,1.3659,1.3728,1.3801,1.3873,1.3918,1.3966,1.4035,1.4136,1.4199,1.4326,1.4427,1.4527,1.4577,1.4583,1.4587,1.4609,1.4601,1.4581,1.4593,1.4386,1.4582,1.4581,1.458,1.4579,1.4579,1.3579,1.3647,1.3721,1.3812,1.3869,1.3936,1.4006,1.4053,1.4137,1.4241,1.4259,1.4367,1.4446,1.4581,1.4634,1.4721,1.4704,1.4736,1.4744,1.4751,1.4755,1.4566,1.4739,1.4739,1.4739,1.4738,1.4738,0,1.3738,1.3785,1.3868,1.3967,1.4039,1.4035,1.4114,1.4176,1.4269,1.4341,1.4421,1.4538,1.4635,1.47,1.4799,1.4856,1.4862,1.4881,1.4878,1.4889,1.4764,1.4735,1.4875,1.4875,1.4875,1.4875,1.4875,1.4875,1.3829,1.3943,1.3969,1.4112,1.416,1.4263,1.4309,1.4371,1.4428,1.4557,1.4636,1.4677,1.4748,1.4851,1.4941,1.4958,1.4994,1.5014,1.5031,1.4913,1.4898,1.4885,1.4858,1.5022,1.5022,1.5149,1.5151,1.5151]},{"header":{"parameterUnit":"m.s-1","parameterCategory":1,"la1":30.2991,"la2":30.254,"lo1":-89.0895,"lo2":-89.0444,"dy":0.0017,"dx":0.0017,"nx":28,"ny":28,"refTime":"2024-08-13T09:00:00:Z","depth":0,"parameterNumber":3,"parameterNumberName":"V-component_of_WINDS"},"data":[0,0,0,0,0,0,0,0,0,0,0,0,0,0,0,0,0,0,0,0,0,0,0,0,0,0,0,0,0,0,0,0,0,0,0,0,0,0,0,0,0,0,0,0,0,0,0,0,0,0,0,0,0,0,0,0,0,0,2.8684,2.8683,0,2.8605,2.8604,2.8603,2.8528,2.8527,2.8526,2.8525,2.844,2.8439,2.8437,0,0,0,0,0,0,0,0,0,0,0,0,0,2.8765,2.8764,2.8684,2.8683,2.8682,2.8605,2.8604,2.8603,2.8528,2.8527,2.8526,2.8525,2.844,2.8439,2.8437,0,0,0,0,0,0,0,0,0,0,0,0,0,2.8712,2.8763,2.8684,2.8635,2.863,2.8605,2.8604,2.8603,2.8528,2.8527,2.8526,2.8524,2.8441,2.8439,2.8437,2.8452,0,0,2.843,2.843,0,0,0,0,0,0,0,0,2.8715,2.8709,2.8643,2.8639,2.8633,2.8575,2.8601,2.8552,2.8529,2.8567,2.8525,2.8524,2.8486,2.848,2.8468,2.8448,2.8445,2.843,2.8429,2.8428,2.8428,0,0,0,0,0,0,0,2.8719,2.8712,2.8652,2.8642,2.8636,2.8616,2.8607,2.8592,2.8535,2.8563,2.8558,2.855,2.8482,2.847,2.8465,2.8444,2.843,2.8429,2.8427,2.8426,2.8431,2.8432,0,0,0,0,0,0,2.8731,2.8716,2.8655,2.865,2.8672,2.8616,2.8606,2.8595,2.8535,2.8525,2.8551,2.8547,2.8475,2.8468,2.8462,2.8474,2.8428,2.8426,2.8425,2.8429,2.8431,2.8432,0,0,0,0,0,0,2.8733,2.8726,2.8658,2.8681,2.8671,2.8616,2.8604,2.8594,2.8582,2.8526,2.8515,2.8549,2.8473,2.8465,2.8455,2.847,2.8425,2.8423,2.8428,2.843,2.8432,2.85,0,0,0,0,0,0,2.8735,2.8727,2.8733,2.8682,2.867,2.8654,2.8605,2.8594,2.8579,2.8572,2.8521,2.8511,2.8471,2.8459,2.8453,2.8467,2.8422,2.8426,2.8429,2.8431,2.8496,2.8504,2.8511,0,0,0,0,0,2.8738,2.8755,2.8734,2.8727,2.8677,2.8655,2.8648,2.8603,2.8581,2.8585,2.855,2.8513,2.8471,2.8458,2.8452,2.8465,2.8425,2.8428,2.8431,2.8493,2.8503,2.8511,0,0,0,0,0,0,2.8808,2.8747,2.8723,2.8724,2.8696,2.8642,2.8647,2.8615,2.8591,2.8586,2.853,2.8519,2.8515,2.8489,2.8477,2.8476,2.8442,2.8444,2.8492,2.8501,2.8508,2.8513,2.842,0,0,0,0,0,2.8824,2.8812,2.876,2.8765,2.8752,2.8703,2.8691,2.866,2.8627,2.8614,2.8577,2.8545,2.8524,2.8512,2.849,2.8494,2.848,2.8499,2.8507,2.8513,2.8514,2.8512,2.8519,2.8442,2.8442,2.8442,0,0,2.8855,2.8821,2.8816,2.8778,2.8752,2.874,2.8693,2.8682,2.8671,2.8611,2.8599,2.8572,2.8533,2.8529,2.8526,2.8507,2.8533,2.8517,2.8523,2.852,2.8516,2.8523,2.8529,2.8445,2.8444,2.8444,0,0,2.8905,2.888,2.888,2.8856,2.8818,2.8785,2.8786,2.8738,2.8717,2.8705,2.8659,2.8646,2.8612,2.8586,2.8568,2.861,2.8574,2.8604,2.8642,2.864,2.8646,2.8651,2.8663,2.8669,2.8606,2.8607,2.8607,0,2.8948,2.8929,2.8885,2.8876,2.886,2.8808,2.8807,2.8785,2.8742,2.8731,2.8712,2.8668,2.8638,2.8626,2.8637,2.8625,2.8622,2.8608,2.8649,2.8654,2.8658,2.8669,2.8674,2.861,2.861,2.8609,2.8609,0,2.8983,2.897,2.8976,2.8936,2.8921,2.8917,2.887,2.886,2.883,2.8799,2.8786,2.8749,2.8718,2.8714,2.8684,2.8698,2.8687,2.866,2.8625,2.867,2.8678,2.8683,2.8615,2.8614,2.8613,2.8612,0,0,2.9071,2.9009,2.9011,2.8992,2.8947,2.8935,2.8929,2.89,2.8891,2.8863,2.8854,2.8828,2.8802,2.8782,2.8749,2.8748,2.8781,2.872,2.8718,2.873,2.879,2.8808,2.8814,2.8759,2.8759,2.876,2.8792,0,2.9111,2.9097,2.9057,2.9054,2.904,2.8992,2.8985,2.8956,2.8928,2.8911,2.8878,2.8859,2.8829,2.8816,2.8813,2.8777,2.8791,2.8775,2.8746,2.8746,2.8754,2.8819,2.8839,2.8871,2.8796,2.8796,2.8797,0,2.9155,2.9131,2.9127,2.9083,2.9075,2.9071,2.9041,2.9027,2.8992,2.8971,2.895,2.8914,2.8902,2.8873,2.8854,2.8844,2.8831,2.8812,2.8812,2.8804,2.8772,2.881,2.8881,2.8884,2.8803,2.8802,2.8802,0,2.9216,2.9184,2.9176,2.9162,2.9111,2.9108,2.9086,2.9051,2.9036,2.901,2.8999,2.8972,2.8956,2.8935,2.8892,2.8875,2.8877,2.8845,2.8857,2.8858,2.8856,2.8856,2.8922,2.8854,2.8854,2.8854,2.8854,0,2.9262,2.9261,2.9203,2.9198,2.9195,2.915,2.9147,2.9121,2.909,2.9078,2.9035,2.9024,2.897,2.8952,2.8919,2.8907,2.8901,2.8882,2.8872,2.8884,2.8886,2.8871,2.8867,2.8855,2.8855,2.8854,2.8854,0,2.9328,2.929,2.9278,2.9231,2.9219,2.9219,2.9177,2.917,2.914,2.9125,2.9119,2.9071,2.9048,2.9005,2.8969,2.8947,2.8941,2.8927,2.8953,2.8947,2.896,2.8958,2.9016,2.902,2.8953,2.8954,2.8954,0,2.9358,2.9356,2.931,2.9299,2.928,2.9264,2.9249,2.9204,2.919,2.9152,2.9148,2.9123,2.91,2.9066,2.9026,2.8998,2.8981,2.9003,2.8976,2.8987,2.8977,2.8977,2.8975,2.9008,2.9009,2.901,2.901,0,2.9415,2.9397,2.9378,2.9352,2.9336,2.9313,2.9288,2.9282,2.9231,2.9218,2.9195,2.9177,2.9142,2.9116,2.9083,2.9059,2.9025,2.902,2.902,2.903,2.9044,2.9034,2.8966,2.9018,2.9017,2.9016,2.9016,2.9016,2.9461,2.9457,2.9424,2.9403,2.9381,2.9358,2.9349,2.9319,2.9299,2.9268,2.9244,2.9222,2.9187,2.914,2.9118,2.9099,2.9083,2.9085,2.9085,2.9085,2.9088,2.9051,2.9093,2.9093,2.9093,2.9092,2.9092,0,2.9513,2.949,2.9473,2.944,2.9424,2.9397,2.9368,2.9356,2.9338,2.931,2.9289,2.9262,2.9237,2.9196,2.9168,2.916,2.9144,2.9154,2.9152,2.9146,2.9106,2.9106,2.9167,2.9167,2.9167,2.9167,2.9167,2.9167,2.9538,2.9529,2.9506,2.9485,2.9461,2.9441,2.9426,2.9405,2.9382,2.9354,2.9334,2.9309,2.9275,2.9244,2.9219,2.9207,2.9197,2.9211,2.9195,2.9157,2.9149,2.9143,2.9143,2.921,2.921,2.9236,2.9236,2.9237]}]]